Regional Weather Roundup
Issued by NWS

Home | Current Version | Previous Version | Text Only | Print | Product List | Glossary Off
Versions: 1 2 3 4 5 6 7 8 9 10 11 12 13 14 15 16 17 18 19 20 21 22 23 24 25 26 27 28 29 30 31 32 33 34 35 36 37 38 39 40 41 42 43 44 45 46 47 48 49 50

000
ASUS45 KABQ 090010
RWRNM
NEW MEXICO REGIONAL WEATHER ROUNDUP
NATIONAL WEATHER SERVICE ALBUQUERQUE NM
500 PM MST THU DEC 08 2016

NOTE: "FAIR" MEANS FEW OR NO CLOUDS BELOW 12,000 FEET AGL WITH NO
       SIGNIFICANT WEATHER OR OBSTRUCTIONS TO VISION.

      THIS PRODUCT IS RELEASED AS TWO VERSIONS.  ONE VERSION NEAR
      THE TOP OF THE HOUR CONTAINING PRELIMINARY DATA FROM ALBUQUERQUE
      AND OTHER STATIONS.  A FINAL VERSION WITH ADDITIONAL DATA IS
      ISSUED ABOUT 10 MINUTES AFTER THE HOUR.

NMZ501-503-504-510>518-090100-
NORTHWEST PLATEAU/NORTHCENTRAL MOUNTAINS

CITY           SKY/WX    TMP DP  RH WIND       PRES   REMARKS
FARMINGTON     CLOUDY    38  15  39 NE7       30.26S WCI  33
6HR MIN TEMP:  31; 6HR MAX TEMP:  41;

LOS ALAMOS     FAIR      29  14  53 S3        30.30S
SANTA FE       FAIR      28  13  53 SW6       30.30R WCI  22
6HR MIN TEMP:  23; 6HR MAX TEMP:  33;

TAOS           FAIR      30  12  47 E3        30.29R
ANGEL FIRE     FAIR      26  12  55 SW9       30.26R WCI  17

$$
NMZ402-403-502-505>509-090100-
WESTCENTRAL MOUNTAINS/SOUTHWEST MOUNTAINS

CITY           SKY/WX    TMP DP  RH WIND       PRES   REMARKS
GALLUP         FAIR      41  19  41 SW7       30.26S
6HR MIN TEMP:  34; 6HR MAX TEMP:  48;

GRANTS         FAIR      33  17  52 S8        30.30S WCI  26

$$
NMZ407-409-411-412-090100-
SOUTHERN DESERTS

CITY           SKY/WX    TMP DP  RH WIND       PRES   REMARKS
DEMING         FAIR      46  30  53 E9        30.32R
6HR MIN TEMP:  44; 6HR MAX TEMP:  50;

LAS CRUCES     FAIR      40  26  57 SE10      30.36R WCI  33
HOLLOMAN AFB   CLOUDY    39  24  54 S10       30.41R WCI  32
T OR C         FAIR      43  24  47 CALM      30.32R
6HR MIN TEMP:  37; 6HR MAX TEMP:  45;


$$
NMZ519>523-090100-
CENTRAL VALLEYS/CENTRAL HIGHLANDS

CITY           SKY/WX    TMP DP  RH WIND       PRES   REMARKS
ALBUQUERQUE    FAIR      37  16  42 CALM      30.33S
6HR MIN TEMP:  30; 6HR MAX TEMP:  39;

DOUBLE EAGLE   PTCLDY    34  14  44 CALM      30.33R
CLINES CORNERS FAIR      19  15  84 SW8       30.30S WCI   9
6HR MIN TEMP:  15; 6HR MAX TEMP:  23;

BELEN          FAIR      37  19  48 CALM      30.33S
6HR MIN TEMP:  32; 6HR MAX TEMP:  40;

SOCORRO        FAIR      40  23  50 S7        30.32S
6HR MIN TEMP:  34; 6HR MAX TEMP:  43;


$$
NMZ524>526-539-540-090100-
SOUTHCENTRAL MOUNTAINS

CITY           SKY/WX    TMP DP  RH WIND       PRES   REMARKS
RUIDOSO        FOG       19  19 100 SE5       30.35S VSB<1/4 WCI  13

$$
NMZ527>531-090100-
NORTHEAST HIGHLANDS/NORTHEAST PLAINS

CITY           SKY/WX    TMP DP  RH WIND       PRES   REMARKS
LAS VEGAS      CLOUDY    16  15  96 S15       30.27S FOG     WCI   1
6HR MIN TEMP:  16; 6HR MAX TEMP:  23; 6HR PCP: TRACE;

RATON          CLOUDY    16  10  77 S10       30.29S WCI   4
6HR MIN TEMP:  15; 6HR MAX TEMP:  19; 6HR PCP: TRACE;

CLAYTON        CLOUDY    20  10  65 S16       30.38S WCI   6
6HR MIN TEMP:  18; 6HR MAX TEMP:  22;


$$
NMZ532>537-090100-
EASTCENTRAL PLAINS

CITY           SKY/WX    TMP DP  RH WIND       PRES   REMARKS
TUCUMCARI      CLOUDY    25  16  68 SW6       30.45F WCI  18
6HR MIN TEMP:  20; 6HR MAX TEMP:  25;

CANNON AFB     CLOUDY    24  16  71 SE6       30.46S WCI  17
6HR MIN TEMP:  20; 6HR MAX TEMP:  24; 6HR PCP: TRACE;

CLOVIS AIRPORT CLOUDY    25   9  50 SE7       30.46F WCI  17

$$
NMZ028-029-538-090100-
SOUTHEAST PLAINS

CITY           SKY/WX    TMP DP  RH WIND       PRES   REMARKS
ROSWELL        CLOUDY    31  19  61 S7        30.48F WCI  24
6HR MIN TEMP:  29; 6HR MAX TEMP:  32;

ARTESIA        CLOUDY    30  23  74 S9        30.50F WCI  22
CARLSBAD       NOT AVBL


$$




USA.gov is the U.S. government's official web portal to all federal, state and local government web resources and services.